Date String (YYYY-MM-DD hh:mm:ss) UTC,Instrument flags,Ambient pressure (hPa),Sample flow (lpm),Bypass flow (lpm),Sample temperature (°C),Ambient temperature (°C),ASC tube jacket temperature (°C),LED temperature (°C),Box temperature (°C),Sample RH (%),Span deviation,Mass concentration (μg/m³),Mass concentration (μg/m³),Mass concentration (μg/m³)
DateTimeUTC,F1_M11,P_M11,Q1_M11,Q2_M11,T1_M11,T2_M11,T3_M11,T4_M11,T5_M11,U1_M11,ZSPAN_M11,X0_M11,X2_M11,X1_M11
2022-10-10 03:00:00,,0830.8,5.00,0.00,29.7,27.3,00.0,38.6,31.4,13.3,0000.0,0010.55,0005.75,0005.19
2022-10-10 03:01:00,,0830.8,5.01,0.00,29.7,27.5,00.0,38.6,31.4,13.3,0000.0,0009.83,0005.71,0005.17
2022-10-10 03:02:00,,0830.7,5.00,0.00,29.6,27.6,00.0,38.6,31.4,13.3,0000.0,0009.65,0005.70,0005.14
2022-10-10 03:03:00,,0830.8,4.99,0.00,29.6,27.8,00.0,38.5,31.4,13.3,0000.0,0009.54,0005.67,0005.12
2022-10-10 03:04:00,,0830.8,5.01,0.00,29.6,27.8,00.0,38.5,31.4,13.3,0000.0,0009.80,0005.66,0005.09
2022-10-10 03:05:00,,0830.8,5.01,0.00,29.6,27.9,00.0,38.5,31.4,13.3,0000.0,0010.81,0005.65,0005.06
2022-10-10 03:06:00,,0830.8,4.98,0.00,29.6,27.9,00.0,38.5,31.4,13.3,0000.0,0011.08,0005.67,0005.02
2022-10-10 03:07:00,,0830.8,5.00,0.00,29.6,28.0,00.0,38.5,31.4,13.3,0000.0,0010.77,0005.69,0005.00
2022-10-10 03:08:00,,0830.8,5.00,0.00,29.6,28.0,00.0,38.5,31.4,13.3,0000.0,0010.77,0005.70,0004.99
2022-10-10 03:09:00,,0830.8,4.99,0.00,29.6,28.1,00.0,38.5,31.4,13.3,0000.0,0010.73,0005.68,0004.97
2022-10-10 03:10:00,,0830.7,5.01,0.00,29.6,28.1,00.0,38.5,31.4,13.2,0000.0,0011.06,0005.62,0004.94
2022-10-10 03:11:00,,0830.7,4.99,0.00,29.6,28.1,00.0,38.5,31.4,13.2,0000.0,0011.14,0005.55,0004.93
2022-10-10 03:12:00,,0830.8,5.00,0.00,29.6,28.1,00.0,38.5,31.4,13.3,0000.0,0011.43,0005.55,0004.92
2022-10-10 03:13:00,,0830.8,5.00,0.00,29.6,28.1,00.0,38.5,31.4,13.2,0000.0,0011.65,0005.56,0004.92
2022-10-10 03:14:00,,0830.8,5.00,0.00,29.7,28.2,00.0,38.5,31.5,13.1,0000.0,0011.70,0005.61,0004.93
2022-10-10 03:15:00,,0830.8,5.00,0.00,29.7,28.2,00.0,38.5,31.5,13.1,0000.0,0011.58,0005.63,0004.95
2022-10-10 03:16:00,,0830.9,4.99,0.00,29.7,28.2,00.0,38.5,31.5,13.1,0000.0,0010.84,0005.63,0004.97
2022-10-10 03:17:00,,0830.8,5.01,0.00,29.7,28.2,00.0,38.5,31.5,13.1,0000.0,0010.61,0005.62,0004.97
2022-10-10 03:18:00,,0830.9,4.99,0.00,29.7,28.2,00.0,38.5,31.5,13.1,0000.0,0010.45,0005.57,0004.97
2022-10-10 03:19:00,,0830.9,5.01,0.00,29.7,28.2,00.0,38.5,31.5,13.1,0000.0,0010.21,0005.49,0004.95
2022-10-10 03:20:00,,0830.9,4.99,0.00,29.7,28.2,00.0,38.5,31.5,13.1,0000.0,0010.29,0005.49,0004.95
2022-10-10 03:21:00,,0830.9,5.01,0.00,29.7,28.3,00.0,38.5,31.5,13.2,0000.0,0010.05,0005.52,0004.94
2022-10-10 03:22:00,,0830.9,5.01,0.00,29.7,28.2,00.0,38.5,31.5,13.1,0000.0,0009.99,0005.51,0004.93
2022-10-10 03:23:00,,0830.9,4.99,0.00,29.7,28.3,00.0,38.5,31.5,13.2,0000.0,0010.00,0005.52,0004.93
2022-10-10 03:24:00,,0830.9,5.01,0.00,29.7,28.3,00.0,38.5,31.6,13.2,0000.3,0009.84,0005.49,0004.93
2022-10-10 03:25:00,,0830.9,4.98,0.00,29.7,28.3,00.0,38.5,31.5,13.2,0000.0,0009.68,0005.44,0004.92
2022-10-10 03:26:00,,0830.9,5.00,0.00,29.7,28.3,00.0,38.5,31.6,13.2,0000.0,0010.05,0005.40,0004.91
2022-10-10 03:27:00,,0830.9,5.01,0.00,29.7,28.3,00.0,38.5,31.6,13.1,0000.0,0009.91,0005.41,0004.89
2022-10-10 03:28:00,,0830.9,4.99,0.00,29.7,28.3,00.0,38.5,31.6,13.1,0000.0,0009.88,0005.40,0004.89
2022-10-10 03:29:00,,0830.9,5.01,0.00,29.7,28.3,00.0,38.5,31.6,13.1,0000.0,0009.94,0005.42,0004.90
2022-10-10 03:30:00,,0830.8,5.01,0.00,29.7,28.3,00.0,38.5,31.5,13.0,0000.0,0010.07,0005.46,0004.91
2022-10-10 03:31:00,,0830.8,4.98,0.00,29.7,28.3,00.0,38.5,31.5,13.0,0000.0,0010.01,0005.47,0004.92
2022-10-10 03:32:00,,0830.8,5.01,0.00,29.8,28.3,00.0,38.5,31.6,13.0,0000.0,0009.91,0005.47,0004.94
2022-10-10 03:33:00,,0830.8,5.00,0.00,29.8,28.3,00.0,38.5,31.6,13.0,0000.0,0009.76,0005.52,0004.97
2022-10-10 03:34:00,,0830.8,4.99,0.00,29.8,28.3,00.0,38.5,31.6,13.0,0000.0,0009.45,0005.55,0004.99
2022-10-10 03:35:00,,0830.8,5.00,0.00,29.8,28.3,00.0,38.5,31.6,12.9,0000.0,0009.48,0005.59,0005.00
2022-10-10 03:36:00,,0830.8,4.99,0.00,29.8,28.3,00.0,38.5,31.6,13.0,0000.0,0009.67,0005.60,0005.02
2022-10-10 03:37:00,,0830.8,5.00,0.00,29.8,28.3,00.0,38.5,31.6,12.9,0000.0,0009.77,0005.65,0005.04
2022-10-10 03:38:00,,0830.8,5.01,0.00,29.8,28.3,00.0,38.6,31.6,12.8,0000.0,0009.59,0005.65,0005.06
2022-10-10 03:39:00,,0830.7,4.99,0.00,29.8,28.3,00.0,38.6,31.6,12.8,0000.0,0010.19,0005.70,0005.07
2022-10-10 03:40:00,,0830.8,5.01,0.00,29.8,28.3,00.0,38.6,31.6,12.8,0000.0,0010.39,0005.70,0005.09
2022-10-10 03:41:00,,0830.8,4.99,0.00,29.8,28.3,00.0,38.6,31.6,12.8,0000.0,0010.36,0005.70,0005.11
2022-10-10 03:42:00,,0830.7,5.01,0.00,29.8,28.3,00.0,38.6,31.6,12.8,0000.0,0010.44,0005.72,0005.12
2022-10-10 03:43:00,,0830.8,4.98,0.00,29.8,28.3,00.0,38.6,31.6,12.8,0000.0,0010.51,0005.74,0005.13
2022-10-10 03:44:00,,0830.8,5.01,0.00,29.8,28.3,00.0,38.6,31.6,12.8,0000.0,0010.39,0005.71,0005.12
2022-10-10 03:45:00,,0830.8,5.00,0.00,29.8,28.3,00.0,38.6,31.6,12.8,0000.0,0010.42,0005.70,0005.13
2022-10-10 03:46:00,,0830.8,5.01,0.00,29.8,28.3,00.0,38.6,31.6,12.7,0000.0,0010.71,0005.72,0005.14
2022-10-10 03:47:00,,0830.8,4.99,0.00,29.8,28.3,00.0,38.6,31.6,12.7,0000.0,0010.51,0005.71,0005.14
2022-10-10 03:48:00,,0830.8,5.00,0.00,29.8,28.3,00.0,38.6,31.6,12.7,0000.0,0010.51,0005.66,0005.13
2022-10-10 03:49:00,,0830.8,5.01,0.00,29.8,28.3,00.0,38.6,31.6,12.6,0000.0,0010.37,0005.67,0005.13
2022-10-10 03:50:00,,0830.9,4.99,0.00,29.8,28.3,00.0,38.6,31.6,12.7,0000.0,0009.82,0005.62,0005.13
2022-10-10 03:51:00,,0830.9,5.00,0.00,29.8,28.3,00.0,38.6,31.6,12.6,0000.0,0009.89,0005.61,0005.11
2022-10-10 03:52:00,,0830.9,4.98,0.00,29.8,28.3,00.0,38.6,31.6,12.6,0000.0,0009.87,0005.59,0005.09
2022-10-10 03:53:00,,0830.9,5.01,0.00,29.8,28.3,00.0,38.6,31.6,12.6,0000.0,0009.83,0005.59,0005.08
2022-10-10 03:54:00,,0830.9,5.00,0.00,29.8,28.3,00.0,38.6,31.6,12.6,0000.0,0010.33,0005.59,0005.07
2022-10-10 03:55:00,,0830.8,4.98,0.00,29.8,28.3,00.0,38.6,31.6,12.7,0000.0,0010.55,0005.60,0005.06
2022-10-10 03:56:00,,0830.9,5.01,0.00,29.8,28.3,00.0,38.6,31.6,12.6,0000.0,0010.65,0005.60,0005.06
2022-10-10 03:57:00,,0830.9,5.01,0.00,29.8,28.3,00.0,38.6,31.6,12.6,0000.0,0010.92,0005.54,0005.04
2022-10-10 03:58:00,,0830.9,4.98,0.00,29.8,28.3,00.0,38.6,31.6,12.6,0000.0,0011.42,0005.52,0005.03
2022-10-10 03:59:00,,0830.9,5.01,0.00,29.8,28.3,00.0,38.6,31.6,12.6,0000.0,0011.03,0005.55,0005.02
